Regional Weather Roundup
Issued by NWS

Home | Current Version | Previous Version | Graphics & Text | Print | Product List | Glossary On
Versions: 1 2 3 4 5 6 7 8 9 10 11 12 13 14 15 16 17 18 19 20 21 22 23 24 25 26 27 28 29 30 31 32 33 34 35 36 37 38 39 40 41 42 43 44 45 46 47 48 49 50
000
ASUS43 KDMX 210206
RWRIA

WEATHER ROUNDUP FOR IOWA
NATIONAL WEATHER SERVICE DES MOINES IA
800 PM CST SAT JAN 20 2018

NOTE: "FAIR" INDICATES FEW OR NO CLOUDS BELOW 12,000 FEET WITH NO
SIGNIFICANT WEATHER AND/OR OBSTRUCTIONS TO VISIBILITY.

* - THESE STATIONS ARE NOT NWS STATIONS...THUS NOT UNDER NWS
QUALITY CONTROL.  THEY ALSO DO NOT REPORT WEATHER SUCH
AS PRECIPITATION OR FOG.

IAZ001>003-012>014-020>022-031>034-043>046-210300-
   NORTHWEST IOWA

CITY           SKY/WX    TMP DP  RH WIND       PRES   REMARKS
CARROLL *      CLOUDY    32  30  93 CALM      29.87S
CHEROKEE *     CLOUDY    36  32  85 N3        29.89R
DENISON *      CLOUDY    32  30  93 E5        29.88S WCI  27
LE MARS *      CLOUDY    34  30  86 NE5       29.89R WCI  30
ORANGE CITY *  CLOUDY    37  36  93 NE5       29.89R WCI  34
SHELDON *      CLOUDY    32  32 100 NE9       29.88R WCI  24
SIOUX CITY     CLOUDY    41  33  73 NE9       29.88R
SPENCER        CLOUDY    33  30  88 NE8       29.89S WCI  26
STORM LAKE *   CLOUDY    37  34  87 E9        29.88R WCI  31
$$

IAZ055>058-069>071-079>083-090>094-210300-
   SOUTHWEST IOWA

CITY           SKY/WX    TMP DP  RH WIND       PRES   REMARKS
ATLANTIC *     CLOUDY    34  34 100 N3        29.87S FOG
AUDUBON *      CLOUDY    28  27  93 CALM      29.88S
CLARINDA *       N/A     41  41 100 CALM        N/A
COUNCIL BLFS * CLOUDY    41  41 100 E5        29.86R
CRESTON *      CLOUDY    43  39  87 E9        29.88F
HARLAN  *      CLOUDY    34  34 100 NE3       29.89F
LAMONI         CLOUDY    46  41  82 SE6       29.88S
RED OAK *      CLOUDY    43  41  93 CALM      29.86F
SHENANDOAH *   CLOUDY    41  39  93 CALM      29.87R
$$

IAZ047>049-059>061-072>074-084-210300-
   CENTRAL IOWA

CITY           SKY/WX    TMP DP  RH WIND       PRES   REMARKS
AMES           CLOUDY    31  31 100 S8        29.90S FOG     WCI  23
ANKENY *       CLOUDY    32  32 100 S3        29.92S FOG
BOONE *        CLOUDY    34  34 100 SE5       29.88S FOG     WCI  30
CHARITON *     CLOUDY    43  39  87 SE7       29.90S
DES MOINES     CLOUDY    41  37  86 E5        29.90S
GRINNELL*      CLOUDY    36  35  96 SE3       29.93R FOG
KNOXVILLE *    CLOUDY    41  37  87 E6        29.90S
MARSHALLTOWN   CLOUDY    32  31  96 SE6       29.90S FOG     WCI  26
NEWTON *       CLOUDY    36  36 100 E3        29.91F FOG
PELLA *        CLOUDY    40  37  87 SE3       29.92F
PERRY *        MOCLDY    36  35  99 E3        29.88F FOG
$$

IAZ004>006-015-016-023>025-035-036-210300-
   NORTH CENTRAL IOWA

CITY           SKY/WX    TMP DP  RH WIND       PRES   REMARKS
ALGONA *       CLOUDY    36 N/A N/A NE7       29.89S WCI  30
CLARION *      CLOUDY    34  34 100 E6        29.88F WCI  29
ESTHERVILLE    CLOUDY    31  30  96 NE7       29.90R WCI  24
FORT DODGE *   CLOUDY    33  32  96 E6        29.88F WCI  28
MASON CITY     CLOUDY    32  30  92 NE7       29.91F WCI  26
FOREST CITY *    N/A     34  32  93 CALM      29.90F
WEBSTER CITY * CLOUDY    34  34 100 E8        29.86F WCI  27
IOWA FALLS *     N/A     36  34  92 E5        29.90F WCI  32
$$

IAZ007>011-017>019-026>030-037>042-050>054-066-210300-
   NORTHEAST IOWA

CITY           SKY/WX    TMP DP  RH WIND       PRES   REMARKS
CEDAR RAPIDS   MOCLDY    34  32  92 S3        29.93R FOG
CHARLES CITY *   N/A     36  36 100 E7        29.91F WCI  30
CLINTON *      CLOUDY    36  34  92 S6        29.96R WCI  31
DECORAH *        N/A     37  34  87 CALM      29.91R
DUBUQUE          N/A     31  29  92 S7        29.93R FOG     WCI  24
MONTICELLO *     N/A     34  34 100 CALM      29.94R FOG
OELWEIN *        N/A     34  34 100 S9        29.92S WCI  26
WATERLOO         N/A     30  27  88 S5        29.92R WCI  25
$$

IAZ064-065-067-068-078-210300-
   EAST CENTRAL IOWA

CITY           SKY/WX    TMP DP  RH WIND       PRES   REMARKS
DAVENPORT      CLOUDY    37  34  89 SE5       29.97S FOG     WCI  33
IOWA CITY      CLOUDY    38  34  85 CALM      29.96R
MT. PLEASANT * CLOUDY    39  36  87 SE6       29.95S WCI  35
MUSCATINE *    CLOUDY    39  36  87 CALM      29.96S
QUAD CITIES    CLOUDY    42  37  82 CALM      29.95S
$$

IAZ062-063-075>077-085>089-095>099-210300-
   SOUTHEAST IOWA

CITY           SKY/WX    TMP DP  RH WIND       PRES   REMARKS
BURLINGTON     CLOUDY    44  39  82 S3        29.95R
FAIRFIELD *    CLOUDY    41  37  87 E5        29.93S
FORT MADISON * CLOUDY    45  41  87 S5        29.95S
KEOKUK *       CLOUDY    45  41  87 CALM      29.94S
OSKALOOSA *    CLOUDY    40  37  87 SE7       29.93R
OTTUMWA        CLOUDY    42  37  82 E6        29.92R
WASHINGTON *   CLOUDY    41  41 100 SE8       29.95S
$$

ABBREVIATIONS USED IN REMARKS
   TC - TEMPERATURES IN CELSIUS
  WCI - WIND CHILL INDEX
   HX - HEAT INDEX
  VSB - VISIBILITY
$$





USA.gov is the U.S. government's official web portal to all federal, state and local government web resources and services.